Probability
0 0 0 0 0 0 0 0 0 0 0 0 0 0 0 0 0 0 0 0 0 0 0 0 0 1 2 3 2 1 0 0 0 0 0 0 0 0 0 0 0 0 0 0 0 0 0 0 0
0 0 0 0 0 0 0 0 0 0 0 0 0 0 0 0 0 0 0 0 0 0 0 0 0 1 2 3 2 1 1 1 0 0 0 0 0 0 0 0 0 0 0 0 0 0 0 0 1
0 0 0 0 0 0 0 0 0 0 0 0 0 0 0 0 0 0 0 0 0 0 0 0 0 0 1 1 2 2 2 2 1 0 0 0 1 1 1 0 0 0 0 0 0 0 0 1 2
0 0 0 0 0 0 0 0 0 0 0 0 0 0 0 0 0 0 0 0 0 0 0 0 0 0 0 0 1 3 3 3 2 1 0 1 2 2 1 0 0 0 0 0 0 0 0 1 2
0 0 0 0 0 0 0 0 0 0 0 0 0 0 0 0 0 0 0 0 0 0 0 0 0 0 0 0 1 2 3 3 2 1 0 1 2 1 0 0 0 0 0 0 0 0 0 0 1
0 0 0 0 0 0 0 0 0 0 0 0 0 0 0 0 0 0 0 0 0 0 0 0 1 1 0 0 1 2 3 3 2 1 1 2 2 1 0 0 0 0 0 0 0 0 0 0 0
0 0 0 0 0 0 0 0 0 0 0 0 0 0 0 0 0 0 0 0 0 0 0 0 0 1 1 0 1 2 3 3 3 1 1 2 2 1 0 0 0 0 0 0 0 0 0 0 0
0 0 0 0 0 0 0 0 0 0 0 0 0 0 0 0 0 0 0 0 0 0 0 0 0 0 0 0 0 1 3 3 2 1 1 2 2 1 0 0 0 0 0 0 0 0 0 0 0
0 0 0 0 0 0 0 0 0 0 0 0 0 0 0 0 0 0 0 0 0 0 0 0 0 0 0 0 0 1 2 2 1 1 1 1 1 0 0 0 0 0 0 0 0 0 0 0 0
0 0 0 0 0 0 0 0 0 0 0 0 0 0 0 0 0 0 0 0 0 0 0 0 0 0 0 0 0 1 1 1 0 0 0 0 0 0 0 0 0 0 0 0 0 0 0 0 0
0 0 0 0 0 0 0 0 0 0 0 0 0 0 0 0 0 0 0 0 0 0 0 0 0 0 0 0 0 0 0 0 0 0 0 0 0 0 0 0 0 0 0 0 0 0 0 0 0
0 0 0 0 0 0 0 0 0 0 0 0 0 0 0 0 0 0 0 0 0 0 0 0 0 0 0 0 0 0 0 0 0 0 0 0 0 0 0 0 0 0 0 0 0 0 0 0 0
0 0 0 0 0 0 0 0 0 0 0 0 0 1 1 0 0 0 0 0 0 0 0 0 0 0 0 0 0 0 0 0 0 0 0 0 0 0 0 0 0 0 0 0 0 0 0 0 0
0 0 0 0 0 0 0 0 0 0 0 0 0 0 1 1 0 0 0 0 0 0 1 1 0 0 0 0 0 0 0 0 0 0 0 0 0 0 0 0 0 0 0 0 0 0 0 0 0
0 0 0 0 0 0 0 0 0 0 0 0 0 0 0 0 0 0 0 0 0 0 1 1 1 0 0 0 0 0 0 0 0 0 0 0 0 0 0 0 0 0 0 0 0 0 0 0 0
0 0 0 0 0 0 0 0 0 0 0 0 0 0 0 0 0 0 0 0 0 1 1 1 1 0 0 0 0 0 0 0 0 0 0 0 0 0 0 0 0 0 0 0 0 0 0 0 0
0 0 0 0 0 0 0 0 0 0 0 0 0 0 0 0 0 0 0 0 1 1 1 0 1 0 0 0 0 0 0 0 0 0 0 0 0 0 0 0 0 0 0 0 0 0 0 0 0
0 0 0 0 0 0 0 0 0 0 0 0 0 0 0 0 0 0 0 0 2 2 1 0 1 0 0 0 0 0 0 0 0 0 0 0 0 0 0 0 0 0 0 0 0 0 0 0 0
0 0 0 0 0 0 0 0 0 0 0 0 0 0 0 0 0 0 0 1 1 1 1 0 0 0 0 0 0 0 0 0 0 0 0 0 0 0 0 0 0 0 0 0 0 0 0 0 0
0 0 0 0 0 0 0 0 0 0 0 0 0 0 0 0 0 0 1 1 1 1 0 0 0 0 0 0 0 0 0 0 0 0 0 0 0 0 0 0 0 0 0 0 0 0 0 0 0
0 0 0 0 0 0 0 0 0 0 0 0 0 0 0 0 0 0 1 2 2 1 0 0 0 0 0 0 0 0 0 0 0 0 0 0 0 0 0 0 0 0 0 0 0 0 0 0 0
0 0 0 0 0 0 0 0 0 0 0 0 0 0 0 0 0 0 1 3 3 2 0 0 0 0 0 0 0 0 0 0 0 0 0 0 0 0 0 0 0 0 0 0 0 0 0 0 0
0 0 0 0 0 0 0 0 0 0 0 0 0 0 0 0 0 0 2 3 3 1 1 0 0 0 0 0 0 0 0 0 0 0 0 0 0 0 0 0 0 0 0 0 0 0 0 0 0
0 0 0 0 0 0 0 0 0 0 0 0 0 0 0 0 0 0 1 3 2 1 1 1 0 0 0 0 0 0 0 0 0 0 0 0 0 0 0 0 0 0 0 0 0 0 0 0 0
0 0 0 0 0 0 0 0 0 0 0 0 0 0 0 0 0 0 1 2 2 2 2 1 0 0 0 0 0 0 0 0 0 0 0 0 0 0 0 0 0 0 0 0 0 0 0 0 0
0 0 0 0 0 0 0 0 0 0 0 0 0 0 0 0 0 0 0 1 2 2 2 1 0 0 0 0 0 0 0 0 0 0 0 0 0 0 0 0 0 0 0 0 0 0 0 0 0
0 0 0 0 0 0 0 0 0 0 0 0 0 0 0 0 0 0 0 0 1 2 1 0 0 0 0 0 0 0 0 0 0 0 0 0 0 0 0 0 0 0 0 0 0 0 0 0 0
0 0 0 0 0 0 0 0 0 0 0 0 0 0 0 0 0 0 0 0 1 2 2 0 0 0 0 0 0 0 0 0 0 0 0 0 0 0 0 0 0 0 0 0 0 0 0 0 0
0 0 0 0 0 0 0 0 0 0 0 0 0 0 0 0 0 0 0 0 1 2 3 1 0 0 0 0 0 0 0 0 0 0 0 0 0 0 0 0 0 0 0 0 0 0 0 0 0
0 0 0 0 0 0 0 0 0 0 0 0 0 0 0 0 0 0 0 0 0 2 2 1 0 0 0 0 0 0 0 0 0 0 0 0 0 0 0 0 0 0 0 0 0 0 0 0 0
Wind_Speed
1 2 2 3 5 5 2 1 0 1 2 2 3 5 6 4 2 1 1 2 2 2 1 2 4 5 5 5 6 7 7 7 8 8 9 9 8 8 8 8 8 8 8 8 8 8 8 8 8
1 1 3 4 5 3 1 1 1 0 3 3 4 4 5 3 2 2 0 1 3 3 2 2 4 5 5 6 6 7 7 7 7 7 8 8 8 8 7 7 7 8 8 8 8 8 8 8 8
1 2 3 4 4 3 2 1 1 2 3 2 3 4 3 2 2 1 1 3 3 2 2 2 4 5 6 6 7 7 7 7 7 7 8 8 7 7 7 7 7 7 8 8 8 7 7 7 7
3 4 4 5 3 1 2 2 2 3 2 4 3 4 2 2 1 2 3 4 4 2 2 2 5 6 6 6 6 7 7 7 7 7 8 7 7 7 7 7 7 7 8 8 8 7 7 8 8
4 4 5 3 2 1 0 1 2 2 2 3 3 3 2 4 3 5 5 4 4 2 2 2 4 5 6 6 6 7 7 7 7 8 8 8 7 7 7 7 7 7 7 7 7 8 8 8 8
4 4 5 1 1 2 1 0 2 3 3 2 3 3 1 1 3 4 4 4 3 2 2 2 4 4 5 6 6 7 7 7 7 7 7 7 7 7 7 7 7 8 7 7 8 8 8 8 9
4 4 3 2 0 1 0 1 3 3 3 2 4 4 1 0 1 4 4 4 3 3 3 3 3 3 4 4 5 6 7 7 7 7 7 7 7 6 6 6 6 7 7 7 7 7 8 8 9
4 4 3 1 1 1 0 1 2 3 2 2 3 5 3 3 4 5 5 4 3 3 2 2 3 3 3 2 3 5 6 6 6 6 6 7 6 6 6 5 6 7 7 7 8 8 8 9 9
3 5 2 2 3 2 1 2 2 2 4 2 1 2 3 7 8 6 3 2 2 1 1 1 2 2 2 2 2 3 5 5 6 5 6 6 4 4 3 5 7 7 8 9 9 10 11 11 10
4 3 2 3 4 3 1 2 3 3 3 2 3 3 6 8 7 6 4 3 2 1 1 0 1 1 2 2 2 2 3 3 3 3 3 3 3 3 4 6 7 8 9 9 10 11 10 8 5
2 3 2 1 2 3 2 1 2 5 2 4 6 7 7 7 6 6 5 4 3 3 2 1 1 1 1 1 1 2 2 2 2 2 2 2 2 2 3 3 4 5 6 5 6 7 4 4 4
1 1 1 1 1 2 3 2 2 3 4 4 7 9 8 8 7 7 6 4 3 2 3 2 1 1 1 1 1 1 1 1 1 1 2 2 2 2 2 2 2 3 2 3 3 3 4 5 5
1 1 1 1 1 2 2 2 2 1 1 5 8 8 8 8 7 5 4 4 3 3 3 2 2 2 1 1 1 2 1 1 1 1 1 2 2 2 2 2 2 3 2 3 3 4 5 5 5
1 1 1 1 1 1 3 0 2 2 4 7 8 8 8 8 7 5 5 4 4 4 3 2 3 3 2 2 1 1 1 1 1 1 1 2 2 2 2 2 2 2 2 3 3 4 4 4 4
1 2 3 2 1 0 3 1 2 3 6 7 7 7 7 6 6 7 7 6 5 4 3 3 4 3 3 2 2 1 1 1 1 1 2 2 2 3 2 2 2 2 2 3 4 4 4 4 5
3 3 2 4 1 0 4 3 5 3 6 6 6 5 6 6 7 7 6 6 5 4 4 3 3 4 3 2 2 2 1 2 1 1 1 2 3 3 3 3 2 2 2 3 3 3 4 4 4
3 1 1 4 1 1 2 4 4 3 6 6 6 6 6 6 6 6 6 6 6 6 5 4 3 4 3 3 3 3 2 2 1 1 1 2 3 3 3 2 2 2 3 3 3 3 3 4 4
2 1 1 3 2 2 1 4 4 3 5 7 6 6 6 7 9 6 6 6 5 5 5 5 4 3 4 3 3 2 3 2 2 2 1 2 2 3 3 3 3 3 3 3 3 4 4 3 3
3 3 2 3 2 1 3 5 6 3 4 5 5 6 7 8 5 3 4 5 5 5 5 5 5 4 4 2 2 2 1 1 1 1 2 2 3 3 3 3 3 3 3 3 4 4 4 3 2
2 2 2 3 1 1 2 5 5 4 6 7 8 8 8 6 3 4 4 5 6 6 6 6 6 5 4 3 2 2 2 1 1 1 2 2 2 2 3 4 3 3 3 4 3 3 3 2 2
3 4 3 3 2 3 1 5 4 3 3 3 5 6 6 8 8 7 6 6 6 6 7 6 6 5 4 3 3 3 3 2 2 1 1 1 2 2 3 4 3 3 3 3 2 3 3 2 1
4 4 4 2 1 3 1 3 6 4 4 4 5 5 7 7 7 7 7 7 7 7 6 6 5 5 4 3 4 4 3 2 1 1 1 1 2 2 2 3 4 3 3 3 2 2 2 3 1
4 1 2 1 2 1 2 1 8 3 4 6 6 6 7 7 8 9 9 9 7 6 6 5 6 5 4 4 4 4 3 2 1 1 2 2 2 2 2 3 3 3 2 2 2 2 2 2 2
3 5 5 4 4 1 3 2 7 4 5 5 4 4 4 6 7 7 6 6 5 5 5 6 6 4 4 4 4 4 4 4 3 2 2 1 1 1 2 2 3 3 2 2 2 2 3 2 2
4 5 3 3 3 4 2 3 8 6 5 5 5 5 3 4 5 6 7 7 7 8 8 7 7 5 4 5 4 4 4 5 5 3 3 2 1 1 1 2 2 2 2 2 2 2 2 2 2
3 7 7 4 3 4 2 4 8 5 4 4 3 3 2 3 4 6 8 8 9 9 8 8 7 6 5 5 4 4 4 3 3 3 3 3 2 2 2 2 2 2 3 3 2 2 2 2 2
5 3 5 5 1 1 4 6 8 3 3 3 2 1 1 3 4 5 6 7 7 9 9 9 9 7 6 6 5 3 3 3 3 3 2 2 2 2 2 3 3 2 3 3 3 2 2 2 2
5 7 5 4 3 3 4 4 5 5 5 4 3 2 2 1 2 4 5 6 7 7 6 6 7 6 5 5 5 4 3 3 3 3 3 2 2 2 3 3 3 3 3 3 3 2 2 3 2
3 4 5 4 4 4 2 7 6 6 5 4 4 3 2 3 4 4 5 5 6 6 6 6 6 5 5 5 4 4 3 3 3 3 3 3 2 3 3 3 3 3 3 3 3 3 3 3 3
3 5 7 5 3 3 3 8 5 4 4 3 3 3 2 2 3 3 4 5 6 6 6 6 6 6 6 6 5 4 4 4 4 4 3 3 3 3 3 4 4 3 3 3 3 3 3 3 3
Wind_Direction
33 75 83 58 53 52 53 0 238 21 50 39 62 77 88 82 76 126 277 134 133 121 118 134 119 112 112 111 111 110 108 106 107 106 105 101 98 95 92 89 86 82 78 76 74 75 74 74 76
101 92 58 58 76 71 357 321 32 83 142 144 74 70 75 68 67 96 51 141 128 127 112 116 115 112 111 109 109 110 109 104 105 105 102 97 96 94 92 88 84 79 75 74 72 74 77 75 75
112 60 76 68 84 137 166 258 137 84 101 93 73 56 75 90 109 153 189 135 117 111 96 113 116 112 106 102 105 106 106 105 105 107 103 98 95 95 92 86 83 78 74 72 71 70 74 75 77
83 47 54 67 71 215 192 202 152 120 76 56 92 71 58 24 162 158 131 123 117 105 83 108 116 112 105 103 103 103 103 102 101 104 101 98 94 93 91 87 85 81 75 71 71 71 71 72 75
63 71 59 51 23 334 280 186 147 109 73 56 92 93 39 357 89 115 119 121 122 105 78 96 112 111 106 103 103 103 102 99 100 102 99 95 91 89 87 87 86 83 79 74 73 70 70 71 75
58 65 78 75 349 339 326 160 107 89 95 92 101 104 59 21 105 120 112 108 107 99 70 63 90 103 107 107 105 104 104 99 97 98 95 93 89 86 86 83 82 81 76 74 73 71 70 71 75
98 90 111 134 30 343 6 103 118 117 114 145 133 112 118 166 137 108 96 88 79 71 62 37 38 58 81 96 104 104 103 97 97 98 93 89 86 83 85 81 79 78 77 76 77 73 74 79 80
117 98 89 128 156 257 289 84 109 126 129 118 120 137 182 190 128 101 81 70 65 57 54 43 36 41 43 42 84 97 100 99 94 90 87 82 75 70 69 70 73 75 75 75 76 75 77 80 82
87 77 124 195 182 212 180 96 73 78 102 88 92 152 168 133 121 110 95 68 52 56 25 33 36 41 45 35 66 72 80 80 78 72 69 63 48 41 41 54 64 71 74 73 72 71 72 72 72
83 110 206 207 187 177 166 136 143 108 95 90 76 78 112 127 135 142 155 167 185 219 258 326 34 45 43 54 58 47 52 58 59 57 54 46 44 38 42 41 58 61 64 66 68 67 68 66 58
113 162 219 244 189 152 142 126 128 132 180 194 170 154 143 144 154 166 179 187 199 209 225 212 190 67 59 55 61 53 53 53 51 61 70 59 48 41 39 38 42 45 53 53 58 58 57 63 67
110 257 206 245 145 138 152 145 131 170 219 189 163 154 155 164 176 184 188 193 195 198 219 208 169 127 86 85 79 73 63 60 52 61 81 77 62 50 50 49 47 50 52 61 61 64 62 68 69
114 286 302 262 94 133 119 134 147 215 159 124 131 144 163 177 188 193 192 187 183 197 213 198 168 161 153 118 102 93 68 67 70 65 70 90 89 76 71 60 53 54 55 65 70 70 67 68 68
210 233 311 342 13 153 134 142 117 219 137 134 148 168 183 186 185 182 186 192 194 200 203 175 167 166 151 136 123 105 82 68 76 74 84 106 106 103 92 76 62 59 65 71 78 80 76 69 68
90 53 359 338 329 185 115 347 247 199 145 155 175 186 194 199 193 197 197 193 193 193 185 171 172 153 149 146 137 117 110 111 95 78 81 102 114 114 103 90 78 74 77 81 80 77 73 72 67
53 55 352 307 352 118 124 256 269 171 158 179 193 202 205 213 210 210 202 193 186 179 174 175 168 145 145 133 122 112 100 93 87 80 81 100 120 123 109 100 89 89 88 89 89 81 77 70 68
37 75 270 305 305 128 144 245 272 174 174 195 204 210 215 224 227 215 201 191 182 178 169 161 148 139 137 119 103 96 88 79 80 87 86 98 108 111 111 108 103 95 92 89 97 81 87 85 78
214 201 248 270 291 115 179 255 275 212 197 211 214 217 220 224 228 212 194 185 175 169 158 152 142 133 124 105 90 77 68 58 59 68 78 97 104 110 113 109 105 103 101 88 89 92 77 83 84
165 163 226 259 263 151 238 260 270 238 214 225 225 220 225 231 233 194 182 171 163 161 159 159 155 152 138 126 122 111 99 64 51 49 70 95 110 118 117 113 105 104 108 113 113 103 90 75 80
165 179 248 288 307 178 259 277 274 232 218 218 217 215 218 226 212 186 175 170 175 175 172 169 169 165 164 156 146 137 127 109 89 43 61 74 103 122 131 122 119 116 110 108 111 113 105 79 60
198 197 219 247 345 15 344 319 307 287 259 245 230 217 212 209 205 194 184 183 178 180 180 175 172 163 160 150 119 95 74 58 48 41 43 40 84 98 113 127 128 127 123 129 131 131 126 127 57
231 219 201 208 76 307 20 299 296 294 299 265 246 228 220 211 201 192 186 184 185 187 177 167 162 155 152 148 143 147 145 151 176 162 105 61 70 91 109 125 129 130 125 132 145 131 125 129 128
204 142 138 146 149 335 351 234 287 315 291 277 263 241 226 209 198 194 191 188 184 174 165 159 151 152 155 154 155 152 150 155 134 113 95 73 56 74 102 116 120 124 126 136 130 121 119 124 140
134 77 57 48 71 309 254 194 280 260 245 273 275 260 234 209 199 194 184 171 164 157 156 154 152 157 158 154 156 162 163 157 143 140 132 107 71 60 90 113 119 127 129 139 140 130 125 124 123
98 96 41 6 9 259 261 203 251 255 247 245 259 264 245 202 187 183 176 173 168 168 169 165 160 163 161 156 163 173 174 172 167 166 158 144 116 96 144 127 128 132 140 140 132 121 118 123 123
161 142 154 188 222 278 305 239 256 265 274 266 259 257 221 182 183 187 187 181 176 175 171 167 169 170 166 164 170 173 175 174 171 167 161 163 168 179 166 140 138 135 136 133 123 111 106 103 108
140 154 160 135 153 276 281 290 301 294 321 331 338 334 230 201 190 191 186 180 175 175 177 174 172 173 173 171 163 162 169 175 167 160 158 164 168 161 148 140 133 128 125 123 119 106 100 101 91
145 141 108 123 153 252 288 278 261 283 291 306 316 288 263 223 198 191 182 178 174 171 169 169 170 173 171 168 168 171 173 176 160 147 155 158 159 140 135 127 124 118 115 117 115 107 103 98 84
120 118 119 124 154 164 253 270 233 231 245 259 266 258 238 208 203 196 179 167 160 156 161 168 172 167 169 171 172 163 167 165 154 156 170 167 156 141 138 139 132 127 125 122 117 114 112 102 85
166 161 149 157 202 180 188 267 271 243 247 249 267 265 249 212 191 176 161 153 156 162 169 174 174 175 179 173 167 167 166 161 162 167 170 162 154 143 140 135 130 130 127 125 127 127 119 114 109